Starlink 6103

decayed
NORAD ID: 56114 Int'l Des: 2023-046 Owner: SPXS Country: US Constellation: starlink
LEOCIRCULAR
Group

About Starlink 6103

Description loading...

Altitude History

Altitude vs Time

uPlot chart will show altitude changes over time

Two-Line Element Set

1 56114U 23046X 25021.95260958 .17086015 95230-5 35054-3 0 9998
2 56114 42.9877 203.8445 0006054 328.9706 163.0860 16.46708340101030
Epoch: Jan 21, 2025 • Age: 7820 hours

Current Status

Position data unavailable
Launch Date Mar 29, 2023
Age 2.7 years
Decay Date Jan 22, 2025
Type internet

Technical Details

Classification Payload
Mass 305.00 kg
Dry Mass 290.00 kg
Total Mass 305.00 kg
Length 0.20 m
Diameter 2.80 m
Span 9.00 m
Shape Box + pan
Manufacturer SPXS
Bus Type Starlink
Phase Status Unknown Transfer Status
Owner/State SPXS/US

Large Constellations

Loading constellations...